Flag for U.S.A. Weather past 2 weeks in Midway, Midway Atoll, U.S.A.

Now
79 °F

Partly sunny.


Feels Like: 82 °F
Forecast: 76 / 84 °F
Wind: 12 mph from East

Location: Midway Island Naval Air Facility

Current Time: Jul 30, 2015 at 9:49:43 AM

Latest Report: Jul 30, 2015 at 8:56 AM


Visibility: N/A

Pressure: 30.93 "Hg

Humidity: 79%

Dew point: 72 °F

Location of MidwayLocation

Historic Weather in Midway — Graph

°F

Midway temperature yesterday

Maximum temperature yesterday: 85 °F (at 1:56 PM)
Minimum temperature yesterday: 75 °F (at 2:56 PM)
Average temperature yesterday: 79 °F

Past Weeks' High & Low Weather Summary

 TemperatureHumidityPressure
High88 °F (Jul 20, 1:08 PM)94% (Jul 24, 8:56 AM)31.00 "Hg (Jul 24, 8:56 AM)
Low73 °F (Jul 24, 5:56 AM)57% (Jul 29, 11:56 AM)28.05 "Hg (Jul 19, 9:56 AM)
Average80 °F77%30.39 "Hg
* Reported Jul 15 8:56 AM — Jul 30 8:56 AM, Midway, Weather by CustomWeather, © 2015

Note: Actual official high and low records may vary slightly from our data, if they occured in-between our weather recording intervals... More about our weather records

Advertising

Midway weather history for previous 24 hours

 ConditionsComfort  
Time TempWeatherWind HumidityBarometerVisibility
8:56 AM
Thu, Jul 30
79 °FPartly sunny.12 mph79%30.93 "HgN/A
7:56 AM78 °FBroken clouds.9 mph82%30.91 "HgN/A
7:21 AM75 °FLight rain. Broken clouds.7 mph89%30.00 "HgN/A
7:02 AM73 °FRain. Partly sunny.8 mph89%30.01 "HgN/A
6:56 AM77 °FBroken clouds.18 mph82%30.90 "HgN/A
5:56 AM75 °FPassing clouds.10 mph85%30.89 "HgN/A
4:56 AM77 °FPassing clouds.10 mph82%30.88 "HgN/A
3:56 AM77 °FClear.9 mph79%30.89 "HgN/A
3:12 AM77 °FPartly cloudy.17 mph83%29.99 "HgN/A
2:56 AM77 °FPassing clouds.10 mph82%30.89 "HgN/A
1:56 AM78 °FClear.15 mph79%30.89 "HgN/A
1:39 AM79 °FPassing clouds.12 mph79%30.00 "HgN/A
1:30 AM77 °FClear.9 mph83%30.00 "HgN/A
12:56 AM78 °FPassing clouds.15 mph79%30.90 "HgN/A
11:56 PM
Wed, Jul 29
78 °FPassing clouds.16 mph77%30.91 "HgN/A
11:35 PM79 °FPartly cloudy.14 mph79%30.01 "HgN/A
10:56 PM78 °FPassing clouds.12 mph79%30.92 "HgN/A
10:32 PM79 °FPassing clouds.14 mph74%30.01 "HgN/A
9:56 PM78 °FPassing clouds.13 mph77%30.91 "HgN/A
9:13 PM79 °FPassing clouds.14 mph74%30.00 "HgN/A
8:56 PM78 °FClear.14 mph77%30.90 "HgN/A
8:29 PM79 °FPassing clouds.13 mph74%29.99 "HgN/A
8:11 PM79 °FClear.14 mph74%29.98 "HgN/A
7:56 PM78 °FPassing clouds.14 mph77%30.88 "HgN/A
7:20 PM79 °FPartly sunny.14 mph74%29.97 "HgN/A
6:56 PM79 °FSunny.13 mph74%30.87 "HgN/A
6:19 PM79 °FPartly sunny.13 mph74%29.96 "HgN/A
5:56 PM80 °FSunny.13 mph72%30.86 "HgN/A
5:26 PM79 °FSunny.13 mph74%29.96 "HgN/A
4:56 PM81 °FPartly sunny.14 mph71%30.87 "HgN/A
3:56 PM80 °FSunny.13 mph77%30.88 "HgN/A
2:56 PM75 °FLight rain. Broken clouds.9 mph88%30.91 "HgN/A
1:56 PM85 °FSunny.13 mph63%30.91 "Hg10 mi
12:56 PM84 °FPartly sunny.13 mph59%30.92 "HgN/A
11:56 AM84 °FPassing clouds.13 mph57%30.94 "Hg10 mi
10:56 AM83 °FSunny.14 mph59%30.94 "HgN/A
9:56 AM83 °FPassing clouds.13 mph61%30.95 "Hg10 mi
Weather by CustomWeather, © 2015

See weather overviewHow to use our weather pages